User: anonymous   Login
Location: Unspecified
(0.0000°N, 0.0000°E)
Time: 21:24:45
(UTC+01:00)
Language:

CZ-4B R/B - Orbit

View from above orbital plane
View from above orbital plane
View from above satellite
View from above satellite

Ground track
Ground track

The orbit data is extracted from the following two-line orbital elements,

1 33410U 08053C   14324.80866558  .00006013  00000-0  47224-3 0  9887
2 33410 097.6045 297.1114 0130465 101.8786 259.7098 14.94707799330237
Epoch (UTC): 20 November 2014 19:24:28
Eccentricity: 0.0130465
inclination: 97.6045°
perigee height: 492 km
apogee height: 674 km
right ascension of ascending node: 297.1114°
argument of perigee: 101.8786°
revolutions per day: 14.94707799
mean anomaly at epoch: 259.7098°
orbit number at epoch: 33023

The dashed part of the orbit path shows where the satellite is in the earth's shadow,  

DLR